User: anonymous   Login
Location: Toronto
(43.6672°N, 79.4170°W)
Time: 04:23:19
(UTC-04:00)
Language:

ISS - Orbit

View from above orbital plane
View from above orbital plane
View from above satellite
View from above satellite

Ground track
Ground track

The orbit data is extracted from the following two-line orbital elements,

1 25544U 98067A   16148.26782693  .00001448  00000-0  28550-4 0  9994
2 25544  51.6424 162.3891 0001964 131.4685 334.4024 15.54691348  1739
Epoch (UTC): 27 May 2016 06:25:40
Eccentricity: 0.0001964
inclination: 51.6424°
perigee height: 402 km
apogee height: 404 km
right ascension of ascending node: 162.3891°
argument of perigee: 131.4685°
revolutions per day: 15.54691348
mean anomaly at epoch: 334.4024°
orbit number at epoch: 173

The dashed part of the orbit path shows where the satellite is in the earth's shadow,  

DLR